Track NAVSTAR 50 (USA 156) now! NAVSTAR 50 (USA 156) is classified as:
1 26690U 01004A 25186.31717397 -.00000084 00000-0 00000-0 0 9991 2 26690 54.9475 45.4096 0002719 22.2006 155.8039 1.91588581176896